Weather History for Daggett-Barstow, CA

Change the Weather History Date:

Saturday, August 17, 2013

  Actual Average Record
Temperature  
Mean Temperature 92 °F -  
Max Temperature 108 °F 99 °F 111 °F (1992)
Min Temperature 78 °F 71 °F 61 °F (1949)
Cooling Degree Days 28    
Growing Degree Days 42 (Base 50)    
Moisture  
Dew Point 45 °F    
Average Humidity 20    
Maximum Humidity 34    
Minimum Humidity 11    
Precipitation  
Precipitation 0.00 in - - ()
Sea Level Pressure  
Sea Level Pressure 29.79 in    
Wind  
Wind Speed 12 mph (West)    
Max Wind Speed 24 mph    
Max Gust Speed 28 mph    
Visibility 10 miles    
Events Thunderstorm    
Averages and records for this station are not official NWS values.
T = Trace of Precipitation, MM = Missing Value Source: NWS Daily Summary

Daily Weather History Graph

Daily Weather History Graph

Search for Another Location

Airport:

Trip Planner

Search our weather history database for the weather conditions in past years. The results will help you decide how hot, cold, wet, or windy it might be!

Date:

Astronomy

Aug. 17, 2013 Rise Set
Actual Time 6:09 AM PDT 7:32 PM PDT
Civil Twilight 5:42 AM PDT 7:59 PM PDT
Nautical Twilight 5:10 AM PDT 8:30 PM PDT
Astronomical Twilight 4:37 AM PDT 9:03 PM PDT
Moon 4:48 PM PDT (8/17) 2:21 AM PDT (8/17)
Length of Visible Light 14h 16m
Length of Day
13h 23m
Waxing Gibbous, 85% of the Moon is Illuminated
Aug 17
Waxing Gibbous
Aug 20
Full
Aug 28
Last Quarter
Sep 5
New
Sep 12
First Quarter

Hourly Weather History & Observations

Time (PDT) Temp. Dew Point Humidity Pressure Visibility Wind Dir Wind Speed Gust Speed Precip Events Conditions
12:50 AM 86.0 °F 48.9 °F 28% 29.85 in 10.0 mi West 16.1 mph - N/A   Clear
1:50 AM 84.0 °F 48.9 °F 29% 29.84 in 10.0 mi West 9.2 mph - N/A   Clear
2:50 AM 82.0 °F 48.0 °F 30% 29.84 in 10.0 mi West 10.4 mph - N/A   Clear
3:50 AM 81.0 °F 48.0 °F 31% 29.83 in 10.0 mi West 12.7 mph - N/A   Clear
4:50 AM 79.0 °F 48.0 °F 34% 29.84 in 10.0 mi West 10.4 mph - N/A   Clear
5:50 AM 78.1 °F 46.9 °F 33% 29.85 in 10.0 mi WSW 10.4 mph - N/A   Clear
6:50 AM 79.0 °F 46.0 °F 31% 29.87 in 10.0 mi West 10.4 mph - N/A   Clear
7:50 AM 82.9 °F 44.1 °F 25% 29.88 in 10.0 mi WNW 8.1 mph - N/A   Clear
8:50 AM 89.1 °F 44.1 °F 21% 29.88 in 10.0 mi WNW 6.9 mph - N/A   Clear
9:50 AM 91.9 °F 46.0 °F 21% 29.88 in 10.0 mi WNW 10.4 mph - N/A   Clear
10:50 AM 95.0 °F 45.0 °F 18% 29.86 in 10.0 mi NW 11.5 mph - N/A   Clear
11:50 AM 98.1 °F 46.0 °F 17% 29.85 in 10.0 mi NW 5.8 mph - N/A   Clear
12:50 PM 100.9 °F 46.0 °F 15% 29.81 in 10.0 mi Calm Calm - N/A   Clear
1:50 PM 104.0 °F 46.9 °F 15% 29.78 in 10.0 mi NNW 6.9 mph - N/A   Clear
2:50 PM 106.0 °F 46.9 °F 14% 29.74 in 10.0 mi Calm Calm - N/A   Clear
3:50 PM 106.0 °F 46.9 °F 14% 29.70 in 10.0 mi ENE 6.9 mph - N/A   Clear
4:50 PM 107.1 °F 46.9 °F 13% 29.68 in 10.0 mi ENE 4.6 mph - N/A   Clear
5:42 PM 107.6 °F 42.8 °F 11% 29.77 in 10.0 mi SW 21.9 mph - N/A   Clear
5:50 PM 107.1 °F 42.1 °F 11% 29.68 in 10.0 mi SW 24.2 mph 27.6 mph N/A   Clear
6:23 PM 105.8 °F 42.8 °F 12% 29.77 in 10.0 mi SW 21.9 mph 25.3 mph N/A Thunderstorm Clear
6:43 PM 104.0 °F 44.6 °F 13% 29.78 in 10.0 mi SW 18.4 mph - N/A   Clear
6:50 PM 104.0 °F 44.1 °F 13% 29.69 in 10.0 mi SW 17.3 mph - N/A   Clear
7:50 PM 100.0 °F 45.0 °F 15% 29.69 in 10.0 mi SW 20.7 mph - N/A   Clear
8:21 PM 96.8 °F 42.8 °F 16% 29.80 in 10.0 mi West 21.9 mph 27.6 mph N/A   Clear
8:50 PM 96.1 °F 45.0 °F 17% 29.73 in 10.0 mi West 17.3 mph - N/A   Clear
9:50 PM 93.0 °F 46.0 °F 20% 29.76 in 10.0 mi West 17.3 mph - N/A   Clear
10:50 PM 90.0 °F 34.0 °F 14% 29.78 in 10.0 mi West 15.0 mph - N/A   Clear
11:50 PM 87.1 °F 37.0 °F 17% 29.78 in 10.0 mi West 13.8 mph - N/A   Clear